This demonstration page uses our WeatherBlox Daily Observations layout. Learn more.

Left ArrowRight Arrow

31.31129, -92.44514

Hourly Observations for December 14, 2019

Temp ( °F °C ) Dew Point ( °F °C ) Humidity (%) Winds ( mph kmh ) Pressure ( in mb ) Visibility ( mi km ) Precip ( " mm )
12:31 am 00:31 Partly Cloudy with Mist and Fog 47 8.3 45 7.2 93 93 Calm 29.83 1010 3 5 0.00 0.00
12:35 am 00:35 Mostly Cloudy with Mist and Fog 46 7.8 45 7.2 96 96 Calm 29.82 1010 1 2 0.00 0.00
12:39 am 00:39 Mostly Cloudy with Fog 47 8.3 46 7.8 97 97 Calm 29.82 1010 0 0 0.00 0.00
12:53 am 00:53 Mostly Cloudy with Fog 47 8.3 46 7.8 97 97 Calm 29.83 1010 0 0 0.00 0.00
1:53 am 01:53 Mostly Cloudy with Fog 45 7.2 45 7.2 100 100 Calm 29.83 1010 0 0 0.00 0.00
2:01 am 02:01 Mostly Cloudy with Fog 45 7.2 44 6.7 97 97 Calm 29.82 1010 0 0 0.00 0.00
2:53 am 02:53 Mostly Cloudy with Fog 44 6.7 43 6.1 96 96 Calm 29.83 1010 0 0 0.00 0.00
3:03 am 03:03 Mostly Cloudy with Fog 44 6.7 44 6.7 100 100 Calm 29.82 1010 0 0 0.00 0.00
3:53 am 03:53 Mostly Cloudy with Fog 45 7.2 44 6.7 97 97 Calm 29.83 1010 0 0 0.00 0.00
4:53 am 04:53 Mostly Cloudy with Fog 45 7.2 44 6.7 97 97 Calm 29.83 1010 0 0 0.00 0.00
5:53 am 05:53 Mostly Cloudy with Fog 47 8.3 46 7.8 97 97 Calm 29.85 1011 0 0 0.00 0.00
6:53 am 06:53 Mostly Cloudy with Light Rain 47 8.3 47 8.3 100 100 NNW 3 6 29.88 1012 0 0 0.00 0.00
7:53 am 07:53 Mostly Cloudy with Light Rain 47 8.3 47 8.3 100 100 Calm 29.89 1012 N/A 0.00 0.00
8:53 am 08:53 Mostly Cloudy with Light Rain 47 8.3 47 8.3 100 100 W 3 6 29.90 1013 N/A 0.00 0.00
9:53 am 09:53 Mostly Cloudy with Fog 49 9.4 49 9.4 100 100 WNW 5 7 29.92 1013 N/A 0.00 0.00
10:43 am 10:43 Mostly Cloudy with Fog 51 10.6 50 10 96 96 NW 3 6 29.90 1013 1 1 0.00 0.00
10:53 am 10:53 Cloudy with Mist and Fog 51 10.6 51 10.6 100 100 VRB 5 7 29.91 1013 1 1 0.00 0.00
11:02 am 11:02 Cloudy with Mist and Fog 51 10.6 51 10.6 100 100 NW 5 7 29.90 1013 2 2 0.00 0.00
11:09 am 11:09 Cloudy with Mist and Fog 52 11.1 51 10.6 97 97 NNW 5 7 29.90 1013 3 5 0.00 0.00
11:38 am 11:38 Mostly Sunny 54 12.2 51 10.6 90 90 WNW 5 7 29.89 1012 7 11 0.00 0.00
11:53 am 11:53 Sunny 56 13.3 52 11.1 87 87 Calm 29.90 1012 7 11 0.00 0.00
12:53 pm 12:53 Sunny 62 16.7 49 9.4 62 62 NW 6 9 29.87 1012 10 16 0.00 0.00
1:53 pm 13:53 Sunny 65 18.3 49 9.4 56 56 Calm 29.86 1011 10 16 0.00 0.00
2:53 pm 14:53 Sunny 67 19.4 47 8.3 49 49 NE 3 6 29.83 1010 10 16 0.00 0.00
3:53 pm 15:53 Sunny 66 18.9 47 8.3 50 50 Calm 29.83 1010 10 16 0.00 0.00
4:53 pm 16:53 Sunny 64 17.8 49 9.4 58 58 ENE 3 6 29.85 1011 10 16 0.00 0.00
5:53 pm 17:53 Clear 56 13.3 47 8.3 72 72 E 3 6 29.85 1011 10 16 0.00 0.00
6:53 pm 18:53 Clear 56 13.3 48 8.9 75 75 E 6 9 29.86 1011 10 16 0.00 0.00
7:53 pm 19:53 Clear 53 11.7 49 9.4 86 86 ESE 7 11 29.87 1012 9 14 0.00 0.00
8:53 pm 20:53 Clear 53 11.7 49 9.4 86 86 SE 5 7 29.88 1012 9 14 0.00 0.00
9:53 pm 21:53 Clear 50 10 48 8.9 93 93 SE 3 6 29.89 1012 8 13 0.00 0.00
10:53 pm 22:53 Clear 50 10 48 8.9 93 93 Calm 29.89 1012 7 11 0.00 0.00
11:53 pm 23:53 Clear with Mist and Fog 49 9.4 48 8.9 97 97 E 3 6 29.89 1012 5 8 0.00 0.00

Powered by AerisWeather